Time,TemperatureF,DewpointF,PressureIn,WindDirection,WindDirectionDegrees,WindSpeedMPH,WindSpeedGustMPH,Humidity,HourlyPrecipIn,Conditions,Clouds,dailyrainin,SoftwareType,DateUTC
2013-02-03 00:00:00,26.1,13.0,30.41,SE,137,0.0,0.0,57,0.00,,,0.00,weatherlink.com 1.10,2013-02-03 07:00:00,
2013-02-03 00:15:00,25.6,13.0,30.40,SE,137,0.0,1.0,59,0.00,,,0.00,weatherlink.com 1.10,2013-02-03 07:15:00,
2013-02-03 00:30:00,24.9,12.0,30.40,SE,137,0.0,0.0,59,0.00,,,0.00,weatherlink.com 1.10,2013-02-03 07:30:00,
2013-02-03 00:46:00,24.3,12.0,30.40,SE,137,0.0,1.0,60,0.00,,,0.00,weatherlink.com 1.10,2013-02-03 07:46:00,
2013-02-03 01:00:00,24.3,12.0,30.40,SE,137,0.0,1.0,60,0.00,,,0.00,weatherlink.com 1.10,2013-02-03 08:00:00,
2013-02-03 01:16:00,23.9,13.0,30.40,SE,137,0.0,2.0,63,0.00,,,0.00,weatherlink.com 1.10,2013-02-03 08:16:00,
2013-02-03 01:30:00,23.8,13.0,30.39,SE,137,0.0,3.0,64,0.00,,,0.00,weatherlink.com 1.10,2013-02-03 08:30:00,
2013-02-03 01:45:00,23.6,12.0,30.39,SE,137,0.0,1.0,62,0.00,,,0.00,weatherlink.com 1.10,2013-02-03 08:45:00,
2013-02-03 02:00:00,22.5,12.0,30.39,SE,137,0.0,0.0,63,0.00,,,0.00,weatherlink.com 1.10,2013-02-03 09:00:00,
2013-02-03 02:15:00,22.1,12.0,30.38,SE,137,1.0,2.0,65,0.00,,,0.00,weatherlink.com 1.10,2013-02-03 09:15:00,
2013-02-03 02:30:00,22.0,12.0,30.38,SE,137,1.0,2.0,65,0.00,,,0.00,weatherlink.com 1.10,2013-02-03 09:30:00,
2013-02-03 02:46:00,22.0,13.0,30.37,SE,137,0.0,2.0,67,0.00,,,0.00,weatherlink.com 1.10,2013-02-03 09:46:00,
2013-02-03 03:01:00,21.7,13.0,30.37,SE,137,0.0,2.0,68,0.00,,,0.00,weatherlink.com 1.10,2013-02-03 10:01:00,
2013-02-03 03:16:00,21.2,12.0,30.37,SE,137,0.0,0.0,68,0.00,,,0.00,weatherlink.com 1.10,2013-02-03 10:16:00,
2013-02-03 03:31:00,21.4,13.0,30.36,SE,137,0.0,0.0,70,0.00,,,0.00,weatherlink.com 1.10,2013-02-03 10:31:00,
2013-02-03 03:46:00,21.1,12.0,30.35,SE,137,0.0,2.0,68,0.00,,,0.00,weatherlink.com 1.10,2013-02-03 10:46:00,
2013-02-03 04:01:00,21.2,13.0,30.35,SE,137,1.0,4.0,70,0.00,,,0.00,weatherlink.com 1.10,2013-02-03 11:01:00,
2013-02-03 04:16:00,21.9,13.0,30.34,SE,137,3.0,3.0,68,0.00,,,0.00,weatherlink.com 1.10,2013-02-03 11:16:00,
2013-02-03 04:31:00,23.1,13.0,30.34,SE,137,0.0,1.0,65,0.00,,,0.00,weatherlink.com 1.10,2013-02-03 11:31:00,
2013-02-03 04:46:00,23.1,12.0,30.34,SE,137,0.0,0.0,63,0.00,,,0.00,weatherlink.com 1.10,2013-02-03 11:46:00,
2013-02-03 05:01:00,21.8,12.0,30.34,SE,137,0.0,0.0,66,0.00,,,0.00,weatherlink.com 1.10,2013-02-03 12:01:00,
2013-02-03 05:16:00,21.5,13.0,30.33,SE,137,0.0,0.0,69,0.00,,,0.00,weatherlink.com 1.10,2013-02-03 12:16:00,
2013-02-03 05:31:00,21.1,13.0,30.33,SE,137,0.0,0.0,70,0.00,,,0.00,weatherlink.com 1.10,2013-02-03 12:31:00,
2013-02-03 05:46:00,20.8,12.0,30.33,SE,137,0.0,2.0,70,0.00,,,0.00,weatherlink.com 1.10,2013-02-03 12:46:00,
2013-02-03 06:01:00,21.0,13.0,30.32,SE,137,0.0,0.0,72,0.00,,,0.00,weatherlink.com 1.10,2013-02-03 13:01:00,
2013-02-03 06:16:00,21.5,14.0,30.32,SE,137,0.0,1.0,72,0.00,,,0.00,weatherlink.com 1.10,2013-02-03 13:16:00,
2013-02-03 06:31:00,21.8,13.0,30.31,SE,137,0.0,2.0,69,0.00,,,0.00,weatherlink.com 1.10,2013-02-03 13:31:00,
2013-02-03 06:46:00,22.2,14.0,30.30,SE,137,0.0,0.0,70,0.00,,,0.00,weatherlink.com 1.10,2013-02-03 13:46:00,
2013-02-03 07:01:00,22.0,13.0,30.31,SE,137,0.0,0.0,69,0.00,,,0.00,weatherlink.com 1.10,2013-02-03 14:01:00,
2013-02-03 07:16:00,21.8,14.0,30.30,SE,137,0.0,0.0,71,0.00,,,0.00,weatherlink.com 1.10,2013-02-03 14:16:00,
2013-02-03 07:31:00,22.0,15.0,30.30,SE,137,0.0,0.0,73,0.00,,,0.00,weatherlink.com 1.10,2013-02-03 14:31:00,
2013-02-03 07:46:00,22.4,14.0,30.29,SE,137,0.0,1.0,71,0.00,,,0.00,weatherlink.com 1.10,2013-02-03 14:46:00,
2013-02-03 08:03:00,23.6,15.0,30.29,SE,137,0.0,0.0,71,0.00,,,0.00,weatherlink.com 1.10,2013-02-03 15:03:00,
2013-02-03 08:17:00,24.9,16.0,30.29,SE,137,0.0,0.0,70,0.00,,,0.00,weatherlink.com 1.10,2013-02-03 15:17:00,
2013-02-03 08:32:00,28.0,15.0,30.28,SE,137,0.0,0.0,59,0.00,,,0.00,weatherlink.com 1.10,2013-02-03 15:32:00,
2013-02-03 08:47:00,29.5,17.0,30.27,SE,137,0.0,1.0,61,0.00,,,0.00,weatherlink.com 1.10,2013-02-03 15:47:00,
2013-02-03 09:02:00,30.5,17.0,30.26,SE,137,0.0,0.0,58,0.00,,,0.00,weatherlink.com 1.10,2013-02-03 16:02:00,
2013-02-03 09:17:00,31.6,18.0,30.27,SE,137,0.0,1.0,57,0.00,,,0.00,weatherlink.com 1.10,2013-02-03 16:17:00,
2013-02-03 09:32:00,32.3,16.0,30.27,SE,137,0.0,2.0,52,0.00,,,0.00,weatherlink.com 1.10,2013-02-03 16:32:00,
2013-02-03 09:47:00,32.8,16.0,30.26,SE,137,0.0,2.0,50,0.00,,,0.00,weatherlink.com 1.10,2013-02-03 16:47:00,
2013-02-03 10:02:00,33.6,18.0,30.26,SE,137,0.0,2.0,52,0.00,,,0.00,weatherlink.com 1.10,2013-02-03 17:02:00,
2013-02-03 10:17:00,34.3,18.0,30.25,SE,137,0.0,1.0,51,0.00,,,0.00,weatherlink.com 1.10,2013-02-03 17:17:00,
2013-02-03 10:32:00,35.2,19.0,30.24,SE,137,0.0,2.0,51,0.00,,,0.00,weatherlink.com 1.10,2013-02-03 17:32:00,
2013-02-03 10:47:00,35.6,18.0,30.23,SE,137,0.0,1.0,49,0.00,,,0.00,weatherlink.com 1.10,2013-02-03 17:47:00,
2013-02-03 11:02:00,36.2,18.0,30.23,SE,137,0.0,3.0,47,0.00,,,0.00,weatherlink.com 1.10,2013-02-03 18:02:00,
2013-02-03 11:18:00,36.6,19.0,30.22,SE,137,0.0,3.0,49,0.00,,,0.00,weatherlink.com 1.10,2013-02-03 18:18:00,
2013-02-03 11:32:00,37.2,18.0,30.21,SE,137,1.0,2.0,46,0.00,,,0.00,weatherlink.com 1.10,2013-02-03 18:32:00,
2013-02-03 11:48:00,38.2,19.0,30.20,SE,137,0.0,2.0,46,0.00,,,0.00,weatherlink.com 1.10,2013-02-03 18:48:00,
2013-02-03 12:02:00,38.9,20.0,30.18,SE,137,1.0,3.0,46,0.00,,,0.00,weatherlink.com 1.10,2013-02-03 19:02:00,
2013-02-03 12:17:00,39.4,19.0,30.17,SE,137,0.0,3.0,44,0.00,,,0.00,weatherlink.com 1.10,2013-02-03 19:17:00,
2013-02-03 12:33:00,40.6,20.0,30.16,SE,137,0.0,3.0,43,0.00,,,0.00,weatherlink.com 1.10,2013-02-03 19:33:00,
2013-02-03 12:48:00,41.0,19.0,30.15,SE,137,0.0,2.0,42,0.00,,,0.00,weatherlink.com 1.10,2013-02-03 19:48:00,
2013-02-03 13:03:00,41.3,20.0,30.14,SE,137,0.0,3.0,42,0.00,,,0.00,weatherlink.com 1.10,2013-02-03 20:03:00,
2013-02-03 13:18:00,41.1,19.0,30.13,SE,137,0.0,2.0,41,0.00,,,0.00,weatherlink.com 1.10,2013-02-03 20:18:00,
2013-02-03 13:33:00,40.9,19.0,30.12,SE,137,0.0,2.0,41,0.00,,,0.00,weatherlink.com 1.10,2013-02-03 20:33:00,
2013-02-03 13:48:00,41.0,18.0,30.11,SE,137,0.0,1.0,40,0.00,,,0.00,weatherlink.com 1.10,2013-02-03 20:48:00,
2013-02-03 14:03:00,41.1,18.0,30.11,SE,137,1.0,2.0,39,0.00,,,0.00,weatherlink.com 1.10,2013-02-03 21:03:00,
2013-02-03 14:18:00,41.4,18.0,30.11,SE,137,0.0,2.0,39,0.00,,,0.00,weatherlink.com 1.10,2013-02-03 21:18:00,
2013-02-03 14:33:00,42.7,19.0,30.09,SE,137,0.0,3.0,39,0.00,,,0.00,weatherlink.com 1.10,2013-02-03 21:33:00,
2013-02-03 14:48:00,42.4,19.0,30.09,SE,137,0.0,3.0,40,0.00,,,0.00,weatherlink.com 1.10,2013-02-03 21:48:00,
2013-02-03 15:03:00,41.9,18.0,30.08,SE,137,0.0,2.0,39,0.00,,,0.00,weatherlink.com 1.10,2013-02-03 22:03:00,
2013-02-03 15:18:00,41.9,18.0,30.08,SE,137,0.0,2.0,38,0.00,,,0.00,weatherlink.com 1.10,2013-02-03 22:18:00,
2013-02-03 15:33:00,41.1,19.0,30.08,SE,137,0.0,1.0,41,0.00,,,0.00,weatherlink.com 1.10,2013-02-03 22:33:00,
2013-02-03 15:48:00,41.0,19.0,30.08,SE,137,0.0,2.0,42,0.00,,,0.00,weatherlink.com 1.10,2013-02-03 22:48:00,
2013-02-03 16:03:00,41.2,20.0,30.08,SE,137,0.0,3.0,42,0.00,,,0.00,weatherlink.com 1.10,2013-02-03 23:03:00,
2013-02-03 16:18:00,41.1,19.0,30.08,SE,137,0.0,1.0,42,0.00,,,0.00,weatherlink.com 1.10,2013-02-03 23:18:00,
2013-02-03 16:33:00,41.6,19.0,30.08,SE,137,0.0,0.0,41,0.00,,,0.00,weatherlink.com 1.10,2013-02-03 23:33:00,
2013-02-03 16:48:00,42.2,20.0,30.07,SE,137,0.0,2.0,41,0.00,,,0.00,weatherlink.com 1.10,2013-02-03 23:48:00,
2013-02-03 17:03:00,40.9,19.0,30.07,SE,137,0.0,3.0,41,0.00,,,0.00,weatherlink.com 1.10,2013-02-04 00:03:00,
2013-02-03 17:19:00,39.5,19.0,30.07,SE,137,0.0,2.0,44,0.00,,,0.00,weatherlink.com 1.10,2013-02-04 00:19:00,
2013-02-03 17:33:00,38.0,19.0,30.07,SE,137,0.0,2.0,47,0.00,,,0.00,weatherlink.com 1.10,2013-02-04 00:33:00,
2013-02-03 17:49:00,36.4,20.0,30.07,SE,140,0.0,2.0,51,0.00,,,0.00,weatherlink.com 1.10,2013-02-04 00:49:00,
2013-02-03 18:03:00,35.3,20.0,30.07,SE,140,1.0,2.0,54,0.00,,,0.00,weatherlink.com 1.10,2013-02-04 01:03:00,
2013-02-03 18:19:00,34.4,20.0,30.08,SE,140,2.0,2.0,55,0.00,,,0.00,weatherlink.com 1.10,2013-02-04 01:19:00,
2013-02-03 18:34:00,35.5,20.0,30.08,SE,140,0.0,4.0,54,0.00,,,0.00,weatherlink.com 1.10,2013-02-04 01:34:00,
2013-02-03 18:49:00,36.5,20.0,30.08,SE,141,0.0,6.0,51,0.00,,,0.00,weatherlink.com 1.10,2013-02-04 01:49:00,
2013-02-03 19:04:00,37.1,20.0,30.08,SE,141,1.0,3.0,50,0.00,,,0.00,weatherlink.com 1.10,2013-02-04 02:04:00,
2013-02-03 19:19:00,37.1,19.0,30.08,SE,141,0.0,4.0,48,0.00,,,0.00,weatherlink.com 1.10,2013-02-04 02:19:00,
2013-02-03 19:34:00,37.3,19.0,30.08,NW,315,8.0,14.0,47,0.00,,,0.00,weatherlink.com 1.10,2013-02-04 02:34:00,
2013-02-03 19:49:00,38.3,20.0,30.07,WNW,283,0.0,7.0,48,0.00,,,0.00,weatherlink.com 1.10,2013-02-04 02:49:00,
2013-02-03 20:04:00,36.1,21.0,30.08,WNW,283,0.0,1.0,54,0.00,,,0.00,weatherlink.com 1.10,2013-02-04 03:04:00,
2013-02-03 20:19:00,33.5,20.0,30.08,WNW,283,2.0,3.0,59,0.00,,,0.00,weatherlink.com 1.10,2013-02-04 03:19:00,
2013-02-03 20:34:00,32.6,21.0,30.08,WNW,283,0.0,2.0,62,0.00,,,0.00,weatherlink.com 1.10,2013-02-04 03:34:00,
2013-02-03 20:49:00,32.6,21.0,30.07,WNW,282,2.0,3.0,62,0.00,,,0.00,weatherlink.com 1.10,2013-02-04 03:49:00,
2013-02-03 21:04:00,31.9,20.0,30.07,West,281,0.0,4.0,63,0.00,,,0.00,weatherlink.com 1.10,2013-02-04 04:04:00,
2013-02-03 21:19:00,31.5,21.0,30.08,WNW,282,0.0,3.0,65,0.00,,,0.00,weatherlink.com 1.10,2013-02-04 04:19:00,
2013-02-03 21:34:00,31.4,20.0,30.09,West,281,3.0,4.0,64,0.00,,,0.00,weatherlink.com 1.10,2013-02-04 04:34:00,
2013-02-03 21:49:00,31.2,20.0,30.09,West,281,0.0,3.0,64,0.00,,,0.00,weatherlink.com 1.10,2013-02-04 04:49:00,
2013-02-03 22:04:00,31.2,20.0,30.09,West,281,3.0,4.0,64,0.00,,,0.00,weatherlink.com 1.10,2013-02-04 05:04:00,
2013-02-03 22:19:00,31.0,20.0,30.08,West,280,2.0,4.0,64,0.00,,,0.00,weatherlink.com 1.10,2013-02-04 05:19:00,
2013-02-03 22:34:00,30.8,20.0,30.08,West,279,1.0,4.0,65,0.00,,,0.00,weatherlink.com 1.10,2013-02-04 05:34:00,
2013-02-03 22:49:00,30.9,20.0,30.08,West,274,2.0,5.0,65,0.00,,,0.00,weatherlink.com 1.10,2013-02-04 05:49:00,
2013-02-03 23:04:00,31.5,21.0,30.07,West,269,0.0,4.0,65,0.00,,,0.00,weatherlink.com 1.10,2013-02-04 06:04:00,
2013-02-03 23:19:00,31.9,20.0,30.06,West,270,0.0,0.0,63,0.00,,,0.00,weatherlink.com 1.10,2013-02-04 06:19:00,
2013-02-03 23:34:00,32.3,21.0,30.06,West,270,0.0,2.0,63,0.00,,,0.00,weatherlink.com 1.10,2013-02-04 06:34:00,
2013-02-03 23:49:00,32.4,21.0,30.07,West,269,0.0,1.0,62,0.00,,,0.00,weatherlink.com 1.10,2013-02-04 06:49:00,